�������C�����ː����j�^�v���󋵏��
Date,Time,Cs137(Bq/L),Cs134(Bq/L),�S��(Bq/L)
2018/04/26,00:00,0.054,ND,ND
2018/04/26,00:10,0.057,ND,ND
2018/04/26,00:20,0.10,ND,ND
2018/04/26,00:30,0.057,ND,ND
2018/04/26,00:40,0.085,ND,ND
2018/04/26,00:50,0.087,ND,ND
2018/04/26,01:00,0.095,ND,ND
2018/04/26,01:10,0.090,ND,ND
2018/04/26,01:20,0.079,ND,ND
2018/04/26,01:30,0.066,ND,ND
2018/04/26,01:40,0.079,ND,ND
2018/04/26,01:50,0.071,ND,ND
2018/04/26,02:00,0.064,ND,ND
2018/04/26,02:10,ND,ND,ND
2018/04/26,02:20,0.050,ND,8.8
2018/04/26,02:30,0.065,ND,ND
2018/04/26,02:40,0.072,ND,ND
2018/04/26,02:50,0.085,ND,ND
2018/04/26,03:00,0.093,ND,10
2018/04/26,03:10,0.12,ND,9.3
2018/04/26,03:20,0.083,ND,ND
2018/04/26,03:30,0.081,ND,12
2018/04/26,03:40,0.085,ND,10
2018/04/26,03:50,0.087,ND,12
2018/04/26,04:00,0.093,ND,ND
2018/04/26,04:10,0.095,ND,9.3
2018/04/26,04:20,0.12,ND,ND
2018/04/26,04:30,0.12,ND,ND
2018/04/26,04:40,0.12,ND,ND
2018/04/26,04:50,0.10,ND,ND
2018/04/26,05:00,ND,ND,ND
2018/04/26,05:10,0.062,ND,ND
2018/04/26,05:20,0.069,ND,ND
2018/04/26,05:30,0.058,ND,ND
2018/04/26,05:40,ND,ND,ND
2018/04/26,05:50,0.056,ND,ND
2018/04/26,06:00,0.064,ND,ND
2018/04/26,06:10,0.094,ND,ND
2018/04/26,06:20,0.082,ND,ND
2018/04/26,06:30,0.065,ND,ND
2018/04/26,06:40,0.098,ND,ND
2018/04/26,06:50,0.090,ND,8.8
2018/04/26,07:00,0.10,ND,9.0
2018/04/26,07:10,0.072,ND,9.5
2018/04/26,07:20,0.058,ND,ND
2018/04/26,07:30,0.054,ND,ND
2018/04/26,07:40,0.056,ND,ND
2018/04/26,07:50,ND,ND,ND
2018/04/26,08:00,0.061,ND,ND
2018/04/26,08:10,0.089,ND,ND
2018/04/26,08:20,0.081,ND,ND
2018/04/26,08:30,0.068,ND,ND
2018/04/26,08:40,ND,ND,ND
2018/04/26,08:50,ND,ND,ND
2018/04/26,09:00,ND,ND,ND
2018/04/26,09:10,ND,ND,ND
2018/04/26,09:20,0.057,ND,ND
2018/04/26,09:30,0.055,ND,ND
2018/04/26,09:40,0.055,ND,ND
2018/04/26,09:50,0.052,ND,ND
2018/04/26,10:00,ND,ND,13
2018/04/26,10:10,ND,ND,14
2018/04/26,10:20,ND,ND,12
2018/04/26,10:30,ND,ND,12
2018/04/26,10:40,0.073,ND,11
2018/04/26,10:50,0.087,ND,ND
2018/04/26,11:00,0.094,ND,ND
2018/04/26,11:10,0.11,ND,ND
2018/04/26,11:20,0.10,ND,ND
2018/04/26,11:30,0.12,ND,ND
2018/04/26,11:40,0.11,ND,ND
2018/04/26,11:50,0.11,ND,10
2018/04/26,12:00,0.10,ND,10
2018/04/26,12:10,0.085,ND,10
2018/04/26,12:20,0.087,ND,9.0
2018/04/26,12:30,0.093,ND,ND
2018/04/26,12:40,0.10,ND,ND
2018/04/26,12:50,0.085,ND,ND
2018/04/26,13:00,0.087,ND,ND
2018/04/26,13:10,0.082,ND,ND
2018/04/26,13:20,0.077,ND,ND
2018/04/26,13:30,0.077,ND,ND
2018/04/26,13:40,0.059,ND,ND
2018/04/26,13:50,ND,ND,9.7
2018/04/26,14:00,0.082,ND,ND
2018/04/26,14:10,0.074,ND,ND
2018/04/26,14:20,0.12,ND,ND
2018/04/26,14:30,0.14,ND,10
2018/04/26,14:40,0.097,ND,10
2018/04/26,14:50,0.093,ND,ND
2018/04/26,15:00,0.085,ND,ND
2018/04/26,15:10,0.091,ND,ND
2018/04/26,15:20,0.089,ND,ND
2018/04/26,15:30,0.076,ND,ND
2018/04/26,15:40,0.092,ND,ND
2018/04/26,15:50,0.12,ND,-
2018/04/26,16:00,0.095,ND,-
2018/04/26,16:10,0.12,ND,-
2018/04/26,16:20,0.18,ND,-
2018/04/26,16:30,0.14,ND,-
2018/04/26,16:40,0.18,ND,-
2018/04/26,16:50,0.18,ND,-
2018/04/26,17:00,0.20,ND,-
2018/04/26,17:10,0.21,ND,-
2018/04/26,17:20,0.20,ND,-
2018/04/26,17:30,0.18,ND,-
2018/04/26,17:40,0.19,ND,-
2018/04/26,17:50,0.20,ND,-
2018/04/26,18:00,0.20,ND,-
2018/04/26,18:10,0.20,ND,-
2018/04/26,18:20,0.20,ND,-
2018/04/26,18:30,0.22,ND,-
2018/04/26,18:40,0.23,ND,-
2018/04/26,18:50,0.23,ND,-
2018/04/26,19:00,0.20,ND,-
2018/04/26,19:10,0.25,ND,-
2018/04/26,19:20,0.21,ND,-
2018/04/26,19:30,0.26,ND,-
2018/04/26,19:40,0.24,ND,-
2018/04/26,19:50,0.25,ND,-
2018/04/26,20:00,0.26,ND,-
2018/04/26,20:10,0.26,ND,-
2018/04/26,20:20,0.26,ND,-
2018/04/26,20:30,0.24,ND,-
2018/04/26,20:40,0.23,ND,-
2018/04/26,20:50,0.21,ND,-
2018/04/26,21:00,0.20,ND,-
2018/04/26,21:10,0.18,ND,-
2018/04/26,21:20,0.20,ND,-
2018/04/26,21:30,0.21,ND,-
2018/04/26,21:40,0.22,ND,-
2018/04/26,21:50,0.22,ND,-
2018/04/26,22:00,0.21,ND,-
2018/04/26,22:10,0.19,ND,-
2018/04/26,22:20,0.16,ND,-
2018/04/26,22:30,0.14,ND,-
2018/04/26,22:40,0.14,ND,-
2018/04/26,22:50,0.15,ND,-
2018/04/26,23:00,0.15,ND,-
2018/04/26,23:10,0.14,ND,-
2018/04/26,23:20,0.14,ND,-
2018/04/26,23:30,0.14,ND,-
2018/04/26,23:40,0.13,ND,-
2018/04/26,23:50,0.13,ND,-
